| time (UTC) | temp F | wind direction | speed MPH | gust MPH | rain 1hr in | rain 24hr in | rain mn in | humidity % | barometer mb |
| 20260903004536 | 77 | 74 | 2.0 | 4.0 | 0.00 | 0.01 | 0.01 | 68 | 1001.1 |
| 20260903003031 | 78 | 71 | 4.0 | 8.0 | 0.00 | 0.01 | 0.01 | 65 | 1001.1 |
| 20260903001546 | 79 | 92 | 4.0 | 9.0 | 0.00 | 0.01 | 0.01 | 63 | 1001.0 |
| 20260903000025 | 80 | 69 | 6.0 | 11.0 | 0.00 | 0.01 | 0.01 | 60 | 1001.0 |
| 20260902234519 | 81 | 64 | 8.0 | 12.0 | 0.00 | 0.01 | 0.01 | 58 | 1001.1 |
| 20260902233015 | 81 | 86 | 5.0 | 12.0 | 0.00 | 0.01 | 0.01 | 57 | 1001.1 |
| 20260902231613 | 82 | 64 | 8.0 | 12.0 | 0.00 | 0.01 | 0.01 | 54 | 1001.0 |
| 20260902230006 | 82 | 74 | 9.0 | 14.0 | 0.00 | 0.01 | 0.01 | 54 | 1001.1 |
| 20260902224502 | 82 | 62 | 5.0 | 15.0 | 0.00 | 0.01 | 0.01 | 54 | 1001.2 |
| 20260902223058 | 82 | 55 | 9.0 | 13.0 | 0.00 | 0.01 | 0.01 | 52 | 1001.2 |
| 20260902221554 | 82 | 43 | 9.0 | 17.0 | 0.00 | 0.01 | 0.01 | 51 | 1001.3 |
| 20260902220055 | 82 | 91 | 9.0 | 13.0 | 0.00 | 0.01 | 0.01 | 53 | 1001.3 |
| 20260902214544 | 82 | 78 | 7.0 | 15.0 | 0.00 | 0.01 | 0.01 | 53 | 1001.4 |
| 20260902213046 | 82 | 78 | 9.0 | 16.0 | 0.00 | 0.01 | 0.01 | 51 | 1001.6 |
| 20260902211536 | 83 | 66 | 9.0 | 15.0 | 0.00 | 0.01 | 0.01 | 52 | 1001.8 |
| 20260902210032 | 82 | 83 | 9.0 | 14.0 | 0.00 | 0.01 | 0.01 | 53 | 1002.0 |
| 20260902204528 | 82 | 91 | 6.0 | 15.0 | 0.00 | 0.01 | 0.01 | 56 | 1002.3 |
| 20260902203023 | 82 | 58 | 6.0 | 16.0 | 0.01 | 0.01 | 0.01 | 57 | 1002.3 |
| 20260902201518 | 82 | 80 | 9.0 | 14.0 | 0.01 | 0.01 | 0.01 | 55 | 1002.4 |
| 20260902200015 | 81 | 59 | 7.0 | 12.0 | 0.01 | 0.01 | 0.01 | 56 | 1002.9 |
| 20260902194512 | 80 | 36 | 7.0 | 14.0 | 0.01 | 0.01 | 0.01 | 58 | 1002.7 |
| 20260902193005 | 79 | 72 | 8.0 | 13.0 | 0.00 | 0.00 | 0.00 | 59 | 1002.8 |
| 20260902191501 | 79 | 76 | 6.0 | 14.0 | 0.00 | 0.00 | 0.00 | 64 | 1002.9 |
| 20260902190125 | 79 | 49 | 8.0 | 12.0 | 0.00 | 0.00 | 0.00 | 64 | 1002.9 |
| 20260902184605 | 79 | 69 | 6.0 | 15.0 | 0.00 | 0.00 | 0.00 | 63 | 1003.3 |
| 20260902183047 | 78 | 83 | 9.0 | 14.0 | 0.00 | 0.00 | 0.00 | 63 | 1003.6 |
| 20260902181553 | 78 | 61 | 6.0 | 12.0 | 0.00 | 0.00 | 0.00 | 66 | 1003.7 |
| 20260902180041 | 78 | 64 | 3.0 | 13.0 | 0.00 | 0.00 | 0.00 | 65 | 1003.7 |
| 20260902174535 | 77 | 69 | 4.0 | 11.0 | 0.00 | 0.00 | 0.00 | 67 | 1003.8 |
| 20260902173037 | 77 | 45 | 5.0 | 11.0 | 0.00 | 0.00 | 0.00 | 67 | 1003.9 |
| 20260902171529 | 76 | 50 | 0.0 | 10.0 | 0.00 | 0.00 | 0.00 | 66 | 1004.0 |
| 20260902170123 | 76 | 55 | 2.0 | 9.0 | 0.00 | 0.00 | 0.00 | 67 | 1004.1 |
| 20260902164517 | 75 | 102 | 6.0 | 11.0 | 0.00 | 0.00 | 0.00 | 67 | 1004.1 |
| 20260902163012 | 74 | 90 | 6.0 | 12.0 | 0.00 | 0.00 | 0.00 | 70 | 1004.2 |
| 20260902161519 | 73 | 26 | 1.0 | 9.0 | 0.00 | 0.00 | 0.00 | 72 | 1004.4 |
| 20260902160006 | 72 | 63 | 2.0 | 9.0 | 0.00 | 0.00 | 0.00 | 72 | 1004.4 |
| 20260902154604 | 73 | 83 | 4.0 | 8.0 | 0.00 | 0.00 | 0.00 | 72 | 1004.3 |
| 20260902153056 | 72 | 62 | 5.0 | 10.0 | 0.00 | 0.00 | 0.00 | 72 | 1004.3 |
| 20260902151552 | 70 | 59 | 0.0 | 8.0 | 0.00 | 0.00 | 0.00 | 67 | 1004.4 |
| 20260902150046 | 69 | 78 | 0.0 | 4.0 | 0.00 | 0.00 | 0.00 | 61 | 1004.5 |
| 20260902144543 | 69 | 85 | 0.0 | 8.0 | 0.00 | 0.00 | 0.00 | 41 | 1004.7 |
| 20260902143038 | 67 | 87 | 0.0 | 1.0 | 0.00 | 0.00 | 0.00 | 2 | 1004.9 |
| 20260902141545 | 65 | 32 | 0.0 | 0.0 | 0.00 | 0.00 | 0.00 | 1 | 1004.9 |
| 20260902140028 | 64 | 360 | 0.0 | 1.0 | 0.00 | 0.00 | 0.00 | 1 | 1005.0 |
| 20260902134527 | 64 | 100 | 0.0 | 3.0 | 0.00 | 0.00 | 0.00 | 1 | 1004.9 |
| 20260902133028 | 63 | 309 | 0.0 | 1.0 | 0.00 | 0.00 | 0.00 | 1 | 1005.3 |
| 20260902131517 | 63 | 6 | 0.0 | 0.0 | 0.00 | 0.00 | 0.00 | 1 | 1005.0 |
| 20260902130011 | 63 | 270 | 0.0 | 1.0 | 0.00 | 0.00 | 0.00 | 1 | 1005.3 |
| 20260902124510 | 63 | 132 | 0.0 | 1.0 | 0.00 | 0.00 | 0.00 | 1 | 1004.9 |
| 20260902123006 | 63 | 7 | 0.0 | 0.0 | 0.00 | 0.00 | 0.00 | 1 | 1005.5 |
| 20260902121507 | 63 | 7 | 0.0 | 3.0 | 0.00 | 0.00 | 0.00 | 1 | 1005.4 |
| 20260902120005 | 63 | 24 | 0.0 | 2.0 | 0.00 | 0.00 | 0.00 | 1 | 1005.0 |
| 20260902114504 | 63 | 35 | 1.0 | 4.0 | 0.00 | 0.00 | 0.00 | 1 | 1005.3 |
| 20260902113010 | 63 | 67 | 0.0 | 1.0 | 0.00 | 0.00 | 0.00 | 1 | 1005.6 |
| 20260902111504 | 63 | 38 | 0.0 | 1.0 | 0.00 | 0.00 | 0.00 | 1 | 1005.7 |
| 20260902110005 | 63 | 38 | 0.0 | 1.0 | 0.00 | 0.00 | 0.00 | 1 | 1005.4 |
| 20260902104700 | 63 | 38 | 0.0 | 1.0 | 0.00 | 0.00 | 0.00 | 1 | 1005.1 |
| 20260902103056 | 63 | 37 | 0.0 | 2.0 | 0.00 | 0.00 | 0.00 | 1 | 1005.1 |
| 20260902101551 | 63 | 38 | 0.0 | 1.0 | 0.00 | 0.00 | 0.00 | 1 | 1005.1 |
| 20260902100046 | 63 | 38 | 0.0 | 0.0 | 0.00 | 0.00 | 0.00 | 1 | 1005.0 |
| 20260902094545 | 63 | 38 | 0.0 | 3.0 | 0.00 | 0.00 | 0.00 | 1 | 1004.8 |
| 20260902093040 | 63 | 29 | 0.0 | 3.0 | 0.00 | 0.00 | 0.00 | 4 | 1004.8 |
| 20260902091534 | 63 | 3 | 1.0 | 2.0 | 0.00 | 0.00 | 0.00 | 8 | 1004.8 |
| 20260902090029 | 64 | 64 | 0.0 | 3.0 | 0.00 | 0.00 | 0.00 | 31 | 1004.9 |
| 20260902084530 | 64 | 74 | 0.0 | 2.0 | 0.00 | 0.00 | 0.00 | 27 | 1004.9 |
| 20260902083020 | 63 | 80 | 0.0 | 2.0 | 0.00 | 0.00 | 0.00 | 9 | 1004.9 |
| 20260902081517 | 64 | 82 | 0.0 | 2.0 | 0.00 | 0.00 | 0.00 | 15 | 1004.8 |
| 20260902080012 | 64 | 85 | 0.0 | 2.0 | 0.00 | 0.00 | 0.00 | 12 | 1004.8 |
| 20260902074507 | 64 | 100 | 1.0 | 4.0 | 0.00 | 0.00 | 0.00 | 2 | 1004.9 |
| 20260902073003 | 64 | 14 | 0.0 | 3.0 | 0.00 | 0.00 | 0.00 | 9 | 1004.9 |
| 20260902071559 | 64 | 24 | 2.0 | 4.0 | 0.00 | 0.00 | 0.00 | 1 | 1005.1 |
| 20260902070055 | 64 | 355 | 2.0 | 4.0 | 0.00 | 0.00 | 0.00 | 1 | 1005.4 |
| 20260902064550 | 65 | 8 | 2.0 | 4.0 | 0.00 | 0.00 | 0.00 | 1 | 1005.7 |
| 20260902063106 | 65 | 330 | 1.0 | 4.0 | 0.00 | 0.00 | 0.00 | 1 | 1005.9 |
| 20260902061541 | 65 | 29 | 0.0 | 1.0 | 0.00 | 0.00 | 0.00 | 13 | 1005.6 |
| 20260902060053 | 65 | 31 | 0.0 | 3.0 | 0.00 | 0.00 | 0.00 | 22 | 1005.2 |
| 20260902054539 | 66 | 20 | 1.0 | 3.0 | 0.00 | 0.00 | 0.00 | 36 | 1005.2 |
| 20260902053038 | 65 | 109 | 1.0 | 2.0 | 0.00 | 0.00 | 0.00 | 25 | 1005.3 |
| 20260902051545 | 66 | 111 | 1.0 | 2.0 | 0.00 | 0.00 | 0.00 | 30 | 1005.2 |
| 20260902050032 | 66 | 68 | 1.0 | 3.0 | 0.00 | 0.00 | 0.00 | 27 | 1005.4 |
| 20260902044530 | 66 | 45 | 0.0 | 2.0 | 0.00 | 0.00 | 0.00 | 21 | 1005.6 |
| 20260902043129 | 67 | 336 | 0.0 | 0.0 | 0.00 | 0.00 | 0.00 | 13 | 1005.8 |
| 20260902041541 | 67 | 334 | 0.0 | 3.0 | 0.00 | 0.00 | 0.00 | 13 | 1005.6 |
| 20260902040028 | 67 | 40 | 0.0 | 2.0 | 0.00 | 0.00 | 0.00 | 7 | 1005.2 |
| 20260902034528 | 66 | 51 | 0.0 | 2.0 | 0.00 | 0.00 | 0.00 | 1 | 1005.4 |
| 20260902033027 | 67 | 49 | 0.0 | 1.0 | 0.00 | 0.00 | 0.00 | 5 | 1005.8 |
| 20260902031526 | 67 | 49 | 0.0 | 2.0 | 0.00 | 0.00 | 0.00 | 15 | 1005.6 |
| 20260902030025 | 67 | 45 | 1.0 | 3.0 | 0.00 | 0.00 | 0.00 | 20 | 1005.4 |
| 20260902024525 | 68 | 45 | 0.0 | 3.0 | 0.00 | 0.00 | 0.00 | 18 | 1005.4 |
| 20260902023024 | 68 | 8 | 1.0 | 4.0 | 0.00 | 0.00 | 0.00 | 6 | 1005.1 |
| 20260902021525 | 68 | 14 | 2.0 | 3.0 | 0.00 | 0.00 | 0.00 | 1 | 1005.0 |
| 20260902020023 | 68 | 14 | 1.0 | 4.0 | 0.00 | 0.00 | 0.00 | 1 | 1005.0 |
| 20260902014527 | 68 | 310 | 1.0 | 3.0 | 0.00 | 0.00 | 0.00 | 2 | 1005.0 |
| 20260902013019 | 68 | 110 | 0.0 | 1.0 | 0.00 | 0.00 | 0.00 | 9 | 1004.8 |
| 20260902011519 | 68 | 110 | 0.0 | 1.0 | 0.00 | 0.00 | 0.00 | 15 | 1004.8 |
| 20260902010016 | 69 | 114 | 1.0 | 2.0 | 0.00 | 0.00 | 0.00 | 21 | 1004.7 |